Showing default

ORBCOMM FM 119, 41180

Orbit data source: Space-Track

ORBCOMM FM 119, 41180 is a payload satellite owned by Orbcomm (US) in LEO that was launched on Tue, 22 Dec 2015 UTC via an FALCON 9 launch vehicle from the Air Force Eastern Test Range (AFETR). Payloads include a variety of satellites, spacecraft, and rockets equipped with specific instruments for various scientific and technological missions. These include communications satellites like Starlink; space stations such as the ISS; scientific satellites like the Hubble; Earth observation satellites from companies like Planet Labs, Umbra, and HawkEye 360; GPS; miniature CubeSats for education and research; and military/defense satellites.

Loading next visibility...
ORBCOMM FM 119 details
Identifier
41180, 2015-081B
Orbit
LEO
Last TLE update23 hours ago
Origin
Flag of USOrbcomm (US / ORB)
ManufacturerSNC Louisville
MissionNon-operational Commercial Communications
Bus & MotorSN-100A, Unknown motor
Mass172 kg wet, 158 kg dry
Launch date (UTC)
2015-12-22 (9 years ago)
Launch vehicle
FALCON 9
Launch site
Air Force Eastern Test Range (AFETR)
Object type
Payload
Rocket body
Debris
Shape & HBRBox + 1 Pan + 1 Ant, 13 m
Radar Cross Section2.222 m², Medium (>0.1 m² and < 1m²)

Expand to show TLE details & history

TLE from 23 hours ago
0 ORBCOMM FM 119
1 41180U 15081B   24360.53684417  .00002359  00000-0  54987-3 0  9997
2 41180  47.0005 295.9812 0001631 329.5720  30.5070 14.57578768480383
Epoch: 2024-12-25T12:53Z
Definitive object data (Epoch: 2024-12-25T12:53:03.336Z)
Latitude-0.00004°
Longitude8.18809°
Altitude700.223 km
Speed7.508 km/s
True Right ascension19h 43m 55s
True Declination0° 00' 00"
Sunlit
Object was in daylight at TLE epoch
Visualization TLE readout
Latitude-17.05528°
Longitude-12.8522°
Altitude703.793 km
Speed7.505 km/s
Apparent Right ascension20h 17m 58s
Apparent Declination-32° 55' 41"
Sunlit
Object is in daylight
Visualization observer readout
Local Sidereal Time11:09:55
Azimuth92.297° ESE
Elevation-55.056°
Doppler factor1
Orbital elements
Apogee altitude703.392 km
Perigee altitude701.082 km
Semi-major axis7,080.374 km
Eccentricity0.0001631
Inclination47.0005°
RAAN295.9812°
Arg. of periapsis329.572°
True anomaly30.51649°
Mean anomaly30.507°
Eccentric anomaly30.51174°
Mean motion3.643 °/min
BSTAR0.00054987
Orbital period98.82 mins
Loading maneuver chart data...
Loading historical data...
Loading historical data...
Loading historical data...
Loading historical data...
Loading historical data...
Loading historical data...
Loading historical data...

ORBCOMM FM 119 Visibility forecast

Observer location: undefined°, undefined

Span
Click to sort rows by Start time (UTC) header in descending order
Start Az.
Max El. time (UTC)
Max El. Az.
Max El.
End time (UTC)
End Az.
8 mins2024-12-26 21:56:31.011Z198.775° SSW2024-12-26 22:00:31.011Z140.572° SSE27.593°2024-12-26 22:04:31.011Z79.957° E
8 mins2024-12-26 23:40:31.011Z255.364° W2024-12-26 23:43:31.011Z303.172° NW42.311°2024-12-26 23:48:31.011Z59.077° ENE
8 mins2024-12-27 01:24:31.011Z294.305° NW2024-12-27 01:28:31.011Z9.34° NNE30.49°2024-12-27 01:32:31.011Z62.671° ENE
8 mins2024-12-27 03:08:31.011Z305.874° NW2024-12-27 03:12:31.011Z23.759° NE36.071°2024-12-27 03:16:31.011Z87.734° E
8 mins2024-12-27 04:52:31.011Z289.575° WNW2024-12-27 04:56:31.011Z185.148° SSW40.195°2024-12-27 05:00:31.011Z135.589° SSE
|